Monterey, Australia

7:49 PM AEDT on November 25, 2017 (GMT +1100)
Monterey

Weather History for 94767 - October, 2013

Change the Weather History Date:

Monday, October 21, 2013

  Actual Average Record
Temperature  
Mean Temperature 76 °F -  
Max Temperature 89 °F 74 °F - ()
Min Temperature 62 °F 58 °F - ()
Cooling Degree Days 10    
Growing Degree Days 26 (Base 50)    
Moisture  
Dew Point 56 °F    
Average Humidity 53    
Maximum Humidity 94    
Minimum Humidity 18    
Precipitation  
Precipitation 0.00 in 0.12 in - ()
Sea Level Pressure  
Sea Level Pressure 29.93 in    
Wind  
Wind Speed 8 mph ()    
Max Wind Speed 23 mph    
Max Gust Speed -    
Visibility 5.8 miles    
Events      
T = Trace of Precipitation, MM = Missing Value Source: Averaged Metar Reports

Daily Weather History Graph

Daily Weather History Graph

Search for Another Location

Airport or City:

Trip Planner

Search our weather history database for the weather conditions in past years. The results will help you decide how hot, cold, wet, or windy it might be!

Date:

Astronomy

Oct. 21, 2013 Rise Set
Actual Time 6:06 AM AEDT 7:13 PM AEDT
Civil Twilight 5:41 AM AEDT 7:39 PM AEDT
Nautical Twilight 5:10 AM AEDT 8:10 PM AEDT
Astronomical Twilight 4:38 AM AEDT 8:41 PM AEDT
Moon 9:25 PM AEDT (10/21) 7:20 AM AEDT (10/21)
Length of Visible Light 13h 58m
Length of Day
13h 06m
Waning Gibbous, 96% of the Moon is Illuminated
Oct 21
Waning Gibbous
Oct 27
Last Quarter
Nov 3
New
Nov 10
First Quarter
Nov 18
Full

Hourly Weather History & Observations

Time (AEDT) Temp. Heat Index Dew Point Humidity Pressure Visibility Wind Dir Wind Speed Gust Speed Precip Events Conditions
12:00 AM 67 °F - 61 °F 77% 30.01 in 16 mi ENE 3.5 mph - -   Smoke
12:00 AM 68.0 °F - 60.8 °F 78% 30.01 in - ENE 3.5 mph - N/A   Clear
12:30 AM 66.2 °F - 60.8 °F 83% 30.01 in - Calm Calm - N/A   Clear
1:00 AM 65 °F - 61 °F 83% 30.00 in - Calm Calm - -  
1:00 AM 66.2 °F - 60.8 °F 83% 29.98 in - Calm Calm - N/A   Clear
1:30 AM 66.2 °F - 62.6 °F 88% 29.98 in - ENE 4.6 mph - N/A   Clear
2:00 AM 66 °F - 63 °F 85% 29.98 in - WNW 4.6 mph - -  
2:00 AM 66.2 °F - 62.6 °F 88% 29.98 in - WNW 4.6 mph - N/A   Clear
2:30 AM 64.4 °F - 62.6 °F 94% 29.98 in - NW 4.6 mph - N/A   Clear
3:00 AM 64 °F - 60 °F 84% 29.98 in 16 mi Calm Calm - -   Smoke
3:00 AM 64.4 °F - 60.8 °F 88% 29.98 in - Calm Calm - N/A   Clear
3:30 AM 64.4 °F - 59.0 °F 83% 29.95 in - Calm Calm - N/A   Clear
4:00 AM 64 °F - 60 °F 81% 29.97 in - NW 3.5 mph - -  
4:00 AM 64.4 °F - 59.0 °F 83% 29.95 in - NW 3.5 mph - N/A   Clear
4:30 AM 62.6 °F - 57.2 °F 82% 29.95 in - North 5.8 mph - N/A   Clear
5:00 AM 64 °F - 57 °F 71% 29.97 in - NNW 6.9 mph - -  
5:00 AM 64.4 °F - 57.2 °F 77% 29.95 in - NNW 6.9 mph - N/A   Clear
5:30 AM 62.6 °F - 57.2 °F 82% 29.95 in - NW 6.9 mph - N/A   Clear
6:00 AM 63 °F - 56 °F 72% 29.97 in 12 mi NNW 8.1 mph - -   Smoke
6:00 AM 62.6 °F - 55.4 °F 77% 29.95 in - NNW 8.1 mph - N/A   Clear
6:30 AM 64.4 °F - 55.4 °F 73% 29.98 in - NNW 8.1 mph - N/A   Clear
7:00 AM 65 °F - 56 °F 64% 30.00 in - NW 9.2 mph - -  
7:00 AM 64.4 °F - 55.4 °F 73% 29.98 in - NW 9.2 mph - N/A   Clear
7:30 AM 64.4 °F - 55.4 °F 73% 30.01 in 4.3 mi NNW 10.4 mph - N/A   Unknown
7:41 AM 66.2 °F - 55.4 °F 68% 30.01 in 1.9 mi NNW 9.2 mph - N/A   Smoke
8:00 AM 67 °F - 55 °F 57% 30.01 in - NNW 9.2 mph - -  
8:00 AM 68.0 °F - 55.4 °F 64% 30.01 in 1.9 mi NNW 9.2 mph - N/A   Smoke
8:30 AM 69.8 °F - 55.4 °F 60% 30.01 in 1.6 mi NW 9.2 mph - N/A   Smoke
9:00 AM 72 °F - 53 °F 40% 30.01 in 2 mi NW 10.4 mph - -   Smoke
9:00 AM 71.6 °F - 53.6 °F 53% 30.01 in 1.9 mi NW 10.4 mph - N/A   Smoke
9:12 AM 73.4 °F - 51.8 °F 47% 30.01 in 3.1 mi NW 10.4 mph - N/A   Smoke
9:30 AM 77.0 °F - 51.8 °F 41% 30.01 in 5.0 mi NW 9.2 mph - N/A   Unknown
10:00 AM 77 °F - 52 °F 31% 30.00 in - NW 8.1 mph - -  
10:00 AM 77.0 °F - 51.8 °F 41% 29.98 in 5.0 mi NW 8.1 mph - N/A   Unknown
10:08 AM 77.0 °F - 51.8 °F 41% 29.98 in 3.1 mi NW 6.9 mph - N/A   Smoke
10:30 AM 80.6 °F 80.3 °F 53.6 °F 39% 29.98 in 2.5 mi NNW 9.2 mph - N/A   Smoke
11:00 AM 84 °F - 51 °F 22% 29.97 in - NW 6.9 mph - -  
11:00 AM 84.2 °F - 51.8 °F 33% 29.95 in 2.5 mi NW 6.9 mph - N/A   Smoke
11:30 AM 86.0 °F - 51.8 °F 31% 29.95 in 3.1 mi North 6.9 mph - N/A   Smoke
12:00 PM 87 °F - 54 °F 22% 29.95 in 2 mi ESE 6.9 mph - -   Smoke
12:00 PM 87.8 °F 85.7 °F 53.6 °F 31% 29.95 in 2.5 mi ESE 6.9 mph - N/A   Smoke
12:30 PM 87.8 °F 85.7 °F 53.6 °F 31% 29.92 in 5.0 mi East 12.7 mph - N/A   Unknown
1:00 PM 88 °F - 55 °F 22% 29.92 in - ENE 12.7 mph - -  
1:00 PM 87.8 °F 86.1 °F 55.4 °F 33% 29.92 in - ENE 12.7 mph - N/A   Clear
1:30 PM 89.6 °F 87.3 °F 53.6 °F 29% 29.89 in - ENE 12.7 mph - N/A   Clear
2:00 PM 89 °F - 52 °F 18% 29.90 in - NE 15.0 mph - -  
2:30 PM 89.6 °F - 51.8 °F 27% 29.86 in - NE 15.0 mph - N/A   Clear
3:00 PM 89 °F - 51 °F 18% 29.87 in 12 mi NE 17.3 mph - -   Smoke
3:00 PM 89.6 °F - 51.8 °F 27% 29.86 in - NE 17.3 mph - N/A   Clear
3:30 PM 89.6 °F - 50.0 °F 26% 29.86 in - NE 18.4 mph - N/A   Clear
4:00 PM 89 °F - 51 °F 18% 29.86 in - NE 18.4 mph - -  
4:30 PM 86.0 °F 84.2 °F 53.6 °F 33% 29.83 in - NE 19.6 mph - N/A   Clear
5:00 PM 83 °F - 57 °F 31% 29.85 in - NNE 20.7 mph - -  
5:00 PM 82.4 °F 82.0 °F 57.2 °F 42% 29.83 in - NNE 20.7 mph - N/A   Clear
5:30 PM 80.6 °F 80.8 °F 57.2 °F 45% 29.83 in - NE 21.9 mph - N/A   Clear
6:00 PM 80 °F - 57 °F 35% 29.85 in 12 mi NNE 23.0 mph - -   Smoke
6:00 PM 78.8 °F - 57.2 °F 47% 29.83 in - NNE 23.0 mph - N/A   Clear
6:30 PM 80.6 °F 80.5 °F 55.4 °F 42% 29.83 in - NE 19.6 mph - N/A   Clear
7:00 PM 79 °F - 55 °F 33% 29.86 in - NE 19.6 mph - -  
7:00 PM 78.8 °F - 55.4 °F 44% 29.83 in - NE 19.6 mph - N/A   Clear
7:30 PM 78.8 °F - 55.4 °F 44% 29.86 in - NE 21.9 mph - N/A   Clear
8:00 PM 79 °F - 53 °F 30% 29.86 in - NNE 21.9 mph - -  
8:00 PM 78.8 °F - 53.6 °F 42% 29.86 in - NNE 21.9 mph - N/A   Clear
8:30 PM 78.8 °F - 51.8 °F 39% 29.86 in - NNE 21.9 mph - N/A   Clear
9:00 PM 80 °F - 53 °F 29% 29.88 in 12 mi NNE 20.7 mph - -   Smoke
9:00 PM 78.8 °F - 53.6 °F 42% 29.86 in - NNE 20.7 mph - N/A   Clear
9:30 PM 78.8 °F - 53.6 °F 42% 29.86 in - NNE 19.6 mph - N/A   Clear
10:00 PM 77 °F - 59 °F 43% 29.90 in - North 10.4 mph - -  
10:00 PM 77.0 °F - 59.0 °F 54% 29.89 in - North 10.4 mph - N/A   Clear
10:30 PM 75.2 °F - 60.8 °F 61% 29.89 in - NNE 6.9 mph - N/A   Clear
11:00 PM 73 °F - 62 °F 59% 29.90 in - NE 5.8 mph - -  
11:00 PM 73.4 °F - 60.8 °F 65% 29.89 in - NE 5.8 mph - N/A   Clear
11:30 PM 73.4 °F - 62.6 °F 69% 29.89 in - ENE 9.2 mph - N/A   Clear